Vertical_Velocity
-0 -0 0 -0 -0 -0 0 0 -0 -1 -2 -3 -3 -3 -3 -3 -3 -2 0 1 -0 -1 -2 -3 -3 -1 2 2 4 4 2 4 10 14 7 3 2 2 2 1 1 -0 -1 -0 0 0 -0 -1 -1 -1 -0 -0 -0 -0 -0 0 0 0 1 2 2 2 2 2 2 2 2 1 0 0 0 1 0 0 0 -0 -0 -0 -0 0 1 1 1 1 1 1 1 1 1 1 1 1 1 0 0 0 0 1 1 1 1 0 -0
-0 -1 -1 0 1 0 -1 -1 -1 -1 -2 -2 -2 -3 -3 -3 -3 -3 -0 0 -0 -1 -2 -3 -3 -2 1 3 6 7 6 2 7 13 16 11 7 4 3 2 1 0 -0 -0 0 0 0 -0 -0 -1 -1 -1 -0 -0 -0 -0 -0 -0 0 1 2 2 2 2 2 2 2 1 1 0 0 0 -0 -1 -1 -1 -0 -0 -0 -0 0 0 0 0 0 0 0 1 1 1 1 1 1 1 1 0 0 1 1 1 1 1 0
1 -1 -3 -0 3 3 -1 -2 -2 -2 -1 -1 -2 -2 -3 -3 -3 -3 -3 -2 -1 -1 -1 -2 -2 1 9 5 3 3 3 2 4 7 12 13 11 7 2 2 1 1 -0 0 1 1 1 1 1 0 -0 -1 -1 -0 -0 -0 -1 -1 -1 -0 1 1 2 2 3 3 2 2 1 0 0 -0 -1 -1 -1 -0 -0 -0 -0 -1 -1 -0 -0 -0 -0 -0 -0 0 0 1 1 1 1 1 1 0 0 1 1 1 1 1 1
2 -2 -4 -2 2 4 0 -3 -3 -2 -1 -1 -1 -2 -3 -3 -3 -3 -3 -2 -2 -1 -0 -1 -1 1 4 2 1 0 1 1 1 1 2 4 5 6 7 2 2 3 5 2 2 2 2 2 1 1 -0 -0 -0 -0 -0 -1 -1 -1 -1 -1 -0 0 1 2 2 3 2 2 1 -0 -1 -1 -0 0 0 0 -0 -1 0 -0 -1 -1 -1 -1 -0 -0 -0 -0 -0 0 1 1 1 1 1 1 0 1 1 1 1 2 1
-1 -1 -2 -2 -1 -1 -1 1 -0 -2 -3 -1 -0 -1 -0 -2 -3 -2 -2 -2 -2 -2 -1 3 2 -1 -1 -1 -1 -1 -0 -0 -0 0 2 0 -1 -1 1 -1 1 6 11 7 4 3 4 3 2 2 1 1 0 0 0 -0 -1 -1 -1 -1 -1 -1 -0 1 2 2 2 1 0 0 5 7 4 1 2 1 -1 -2 -1 -0 -1 -1 -1 -1 -0 -0 -0 -0 -0 -0 -0 1 1 1 1 0 0 0 0 1 1 1 1
-0 3 7 4 1 -0 -1 -0 -1 -1 0 2 5 9 12 3 -2 -3 -2 -2 -2 -2 -1 1 0 -2 -1 3 6 7 6 2 1 0 1 4 6 6 1 -2 -3 -1 3 5 4 2 4 3 3 2 2 2 2 1 1 0 -1 -1 -1 -1 -1 -1 -1 0 1 2 1 1 0 2 11 11 7 2 2 3 1 -1 -2 -1 -0 -0 -1 -1 -0 -0 -0 -0 -0 -0 -0 0 1 1 1 0 0 0 0 0 0 0 0
4 4 7 7 9 12 10 2 -2 -2 -0 4 5 6 9 9 7 5 2 -1 -2 -2 -1 -1 -3 -3 -2 3 4 5 7 8 5 2 0 4 9 13 11 4 -0 -2 -1 -2 -1 0 1 3 3 2 3 3 2 2 2 1 0 -0 -1 -0 -1 -1 -1 -0 1 1 1 0 1 3 5 4 2 1 1 2 1 -1 -3 -2 -0 0 -0 -1 -1 -0 0 0 0 -0 -0 -0 0 1 1 0 0 0 0 0 0 0 0
5 3 2 5 9 10 7 2 -1 -3 -4 2 3 3 4 10 13 13 10 1 -1 -1 -1 -1 -2 -3 -4 -2 -1 -0 0 8 11 11 8 4 5 9 14 9 4 -1 -1 -0 0 0 1 2 3 3 3 3 3 3 2 2 1 0 0 0 -0 -1 -1 -0 0 1 1 -2 -2 -0 1 1 0 -0 -0 0 0 -0 -3 -2 -1 1 1 -0 -1 -0 0 1 1 0 -0 -0 0 0 0 0 0 -0 -0 0 0 -0 -0
1 2 2 4 7 10 11 7 2 -2 -3 -0 4 7 10 6 4 3 2 -0 -1 -0 -1 -1 -1 -1 -3 -2 -1 -1 -2 2 6 9 8 4 2 4 10 11 8 5 5 8 8 7 7 3 3 3 2 3 3 3 2 2 1 1 0 1 1 0 -0 -0 0 1 1 -2 -1 1 2 2 1 -0 -1 -1 -1 -1 -2 -2 -1 0 1 1 -0 -0 -0 1 1 1 0 0 0 0 0 0 0 -0 -0 0 0 0 0
1 2 5 9 6 3 3 1 1 -0 -1 -3 -2 0 1 -1 -2 -2 -2 -2 1 3 2 1 0 -0 -1 -2 -2 -2 -3 -0 1 1 -0 -0 4 8 9 8 9 9 5 6 5 5 4 4 4 3 1 2 2 3 3 2 2 1 0 0 1 1 1 0 0 1 1 -1 -0 1 3 2 1 -0 -1 -1 -1 -1 -2 -2 -2 -1 1 1 1 0 -0 1 1 1 1 0 0 0 0 0 -0 -0 -0 -0 0 0 0
1 1 2 3 2 0 1 1 0 -1 -1 -1 1 4 5 6 4 2 -2 -2 -0 2 5 2 1 -0 -1 -1 -2 -3 -3 -2 -0 0 -1 -2 4 10 7 4 4 5 2 -1 -1 2 7 9 8 4 1 0 1 2 2 2 2 2 1 1 1 1 2 1 1 1 1 -1 -0 1 2 2 1 0 -2 -1 1 1 0 -1 -2 -1 1 1 1 0 -0 0 1 2 1 1 1 1 1 1 0 -0 -0 -0 -0 -0 0
1 1 -0 -0 -0 -0 -0 -0 -1 -1 -2 0 3 5 7 8 4 -1 -3 -2 -2 -2 -1 -0 -0 -1 -1 -1 -1 -1 -2 -2 -1 1 1 -1 3 9 10 4 2 4 8 3 1 1 5 5 4 3 2 1 -0 -0 1 1 2 2 2 2 1 1 1 2 2 1 1 -0 -0 0 1 2 3 3 -1 -0 1 2 2 0 -1 -1 1 1 1 1 0 -0 1 1 2 1 1 1 1 1 1 0 -0 -0 -0 -0 -0
2 2 1 0 -0 -1 -1 -1 -1 -1 -2 -2 -2 -2 -1 4 3 0 -3 -2 -2 -3 -2 -1 -2 -2 -1 -0 0 -0 -1 -1 -1 -0 1 -0 0 2 6 3 1 1 5 3 2 1 0 -1 -2 -1 1 2 1 -1 -1 1 1 2 2 2 2 2 1 1 1 2 1 1 -0 -0 0 1 1 1 0 1 0 1 4 3 1 -0 1 1 1 1 0 -0 0 1 1 1 2 2 2 2 1 1 -0 -0 -0 -0 -0
2 2 2 2 1 -0 -1 -1 -1 -1 -2 -2 -2 -2 -3 -1 -1 -1 -2 -1 -2 -3 -3 -2 -2 -2 -1 -1 -0 0 -0 -1 -2 -1 -0 -1 -1 -1 0 -0 -1 -0 1 1 1 1 1 -0 -2 -2 -2 0 1 -0 -1 -1 -1 -0 1 2 2 2 1 1 1 1 2 1 0 -1 -1 -0 0 1 1 1 0 -0 3 7 5 1 1 1 2 1 1 -0 -0 -0 0 1 1 2 2 2 2 1 1 -0 -0 -0 -0
1 2 2 2 1 1 1 1 0 -0 -1 -1 -1 -0 -1 -1 -1 -2 -2 -0 0 0 -1 -1 -1 -1 -2 -1 -1 -0 -0 -1 -1 -2 -2 -1 -1 -1 -1 -1 -1 -0 -0 0 1 1 2 1 0 -1 -3 -2 -1 -0 -0 -1 -2 -2 -0 1 2 2 2 1 1 1 1 2 1 1 1 0 0 1 2 2 1 1 -0 4 4 1 0 1 2 2 1 0 -0 -0 -0 0 1 1 2 2 2 2 1 0 -0 -1 -0
1 1 1 1 2 2 2 2 1 1 1 0 0 0 0 -1 -1 -2 -2 -2 0 3 4 1 2 3 -1 -2 -2 -1 -1 -1 -1 -1 -2 -2 -1 -1 -0 -0 0 0 0 -0 0 1 1 1 1 -1 -2 -3 -2 -1 -1 -1 -2 -3 -1 0 1 1 1 2 1 1 0 1 3 7 9 4 1 1 1 1 3 4 2 1 0 -1 -1 0 1 1 1 1 0 0 -0 -0 0 1 1 2 2 2 2 1 0 -0 -1
1 0 -0 1 1 2 2 2 2 1 1 1 1 1 0 -0 -1 -2 -3 -3 -2 -0 3 1 4 6 -0 -3 -3 -2 -2 -2 -2 -1 -1 -1 -1 -1 -0 0 1 1 1 0 0 0 1 1 1 -0 -1 -1 -2 -2 -2 -1 -2 -2 -1 -0 0 0 1 1 2 1 -0 -1 3 8 11 4 2 1 1 1 6 9 5 3 0 -2 -2 -1 -0 1 1 1 1 0 0 -0 -0 0 1 2 2 2 1 1 0 -0 -0
1 1 1 1 2 2 2 1 2 2 2 1 1 0 -0 -1 -1 -2 -3 -3 -4 -3 -2 -3 -0 2 1 1 -1 -3 -2 -2 -2 -2 -1 -1 -0 -0 -0 0 0 0 0 0 -0 -0 -0 0 0 -0 -1 -1 -1 -2 -3 -3 -3 -2 -1 -1 -1 -0 0 0 1 2 1 -2 0 5 10 6 4 2 0 1 6 9 7 3 1 -1 -2 -2 -1 -1 0 1 1 1 0 0 0 0 1 1 1 1 1 0 -0 -0 -0
3 4 4 4 3 3 2 2 2 2 2 2 0 -1 -1 -1 -2 -2 -2 -1 -1 -1 -3 -3 -3 -2 1 4 1 -2 1 4 2 -0 -1 -1 -0 0 0 -0 -0 -0 -0 -0 -1 -1 -1 -1 -1 -1 -1 -1 -1 -1 -3 -3 -3 -3 -1 -1 -1 -1 -0 -1 0 1 1 -2 -2 2 11 8 6 4 1 -1 1 3 4 2 0 -1 -1 -1 -1 -1 -0 -0 0 0 0 0 0 -0 0 0 0 0 -0 -0 -0 -0 -1
3 5 7 4 3 2 1 0 -0 -0 1 1 2 2 1 -0 -1 -0 -0 0 1 1 -1 -1 -2 -3 -4 2 4 5 7 9 6 2 -1 -0 -0 0 0 0 -0 -1 -1 -1 -1 -1 -1 -1 -1 -1 -1 -1 -1 -1 -2 -3 -3 -2 -1 -2 -2 -1 -1 -1 -1 -0 0 -2 -3 -0 9 9 7 4 1 -1 -2 -2 1 4 3 0 0 1 1 0 -0 0 0 0 0 0 -0 -0 -0 -0 -0 -0 -0 -1 -1 -1 -1
4 7 8 4 1 0 0 0 -1 -1 -1 -1 1 2 2 1 1 1 1 0 1 2 2 1 -0 -3 -5 6 10 9 3 3 2 -0 -3 -2 -1 -1 -0 -0 -0 -0 -0 -0 -0 -0 -0 -1 -1 -1 -1 -1 -1 -1 -1 -2 -2 -1 -1 -1 -1 -1 -1 -1 -1 -1 -1 -3 -5 -3 7 10 10 8 5 0 -3 -3 1 10 8 3 5 2 2 1 0 0 1 1 0 0 -0 -0 -0 -0 -0 -0 -0 -1 -1 -1 -1
3 7 7 5 1 -1 -0 1 1 -0 -0 -1 -1 -0 0 1 1 1 0 -0 0 1 2 3 1 -1 -0 8 8 2 -2 -2 -2 -3 -3 -3 -3 -2 -2 -2 -1 -0 0 0 0 -0 -0 -0 -1 -1 -1 -1 -1 -1 -1 -1 -1 -1 -1 -1 -1 -1 -1 -1 -1 -1 -2 -3 -6 -5 5 11 11 10 10 5 -0 -3 -1 10 9 6 10 4 1 1 1 1 1 1 1 0 -0 -1 -1 -0 -0 -0 -0 -1 -1 -1 -1
-1 1 6 6 3 -0 -1 -0 0 -0 0 0 -0 -1 -0 1 1 1 -0 -1 -1 0 1 2 1 1 3 6 4 -0 -2 -2 -3 -3 -4 -4 -3 -2 -2 -3 -2 -1 -0 -0 -0 0 0 -0 -0 -1 -1 -1 -1 -1 -1 -1 -0 -0 0 -0 -0 -0 -0 -0 -1 -1 -1 -3 -5 -5 1 9 10 7 6 9 7 4 -0 9 10 9 11 6 3 1 1 1 2 2 1 0 -0 -1 -1 -1 -0 -0 -0 -0 -1 -1 -1
-2 -2 1 5 5 3 -0 -0 -1 -1 -1 -0 -0 -0 -1 -0 0 0 -1 -1 -1 -1 -0 0 1 2 4 4 2 -1 -4 -3 -2 -1 -3 -3 -3 -2 -2 -3 -2 -2 -1 -1 -1 -0 0 0 0 -0 -1 -1 -1 -1 -1 -0 -0 0 0 0 0 0 0 0 -0 -0 -1 -2 -4 -5 -3 4 8 8 2 8 11 11 6 7 8 8 7 7 7 5 1 1 2 2 2 1 0 -0 -1 -1 -0 -0 -0 -0 -1 -1 -1
-1 -1 -2 0 2 3 1 0 -0 -1 -1 -1 -1 -1 -2 -1 0 1 0 0 -0 -0 -0 -1 -0 0 1 1 1 -1 -5 -4 -2 -2 -3 -3 -2 -2 -2 -2 -2 -1 -1 -2 -2 -2 -1 0 1 0 -0 -0 -0 -0 -1 -0 -0 0 0 -0 0 0 0 0 0 -0 -1 -2 -3 -4 -3 0 4 6 5 5 7 10 10 4 3 5 8 5 7 9 4 2 2 2 2 1 0 -0 -0 -0 -0 -0 -0 -0 -0 -0 -0
-1 -1 -1 -2 -1 0 1 1 0 0 -0 -1 -2 -3 -4 -3 -1 0 1 1 1 1 2 -0 -1 -1 0 1 1 -1 -3 -4 -4 -3 -2 -2 -2 -2 -2 -1 -0 -1 -2 -3 -3 -3 -2 -1 -0 0 -0 -0 -0 -1 -1 -1 -0 -0 -0 -1 -0 -0 -0 0 0 -0 -0 -2 -3 -3 -2 -0 1 3 6 4 6 7 7 1 2 6 13 8 7 8 10 4 2 1 1 1 0 0 0 -0 -0 -0 -0 -0 -0 -0 -0
-0 -0 -0 -0 -0 0 1 -0 -1 -1 -0 -1 -2 -3 -4 -4 -3 -1 1 1 1 2 2 1 -2 -3 -0 1 -0 -2 -4 -5 -3 -2 -1 -2 -3 -3 -3 -2 -1 -1 -3 -2 -2 -2 -2 -0 0 -0 0 -0 -1 -1 -1 -1 -1 -0 -1 -1 -1 -1 -1 -0 -0 -0 -1 -1 -2 -3 -2 -0 0 1 3 3 5 6 2 1 2 6 13 10 6 5 11 7 4 1 -0 -0 -0 0 0 -0 -0 -0 -0 -0 -0 -1 -0
1 1 1 1 1 1 1 -0 -1 -1 -2 -2 -2 -3 -3 -3 -3 -3 -2 -0 1 1 2 2 1 -1 -0 1 -0 -2 -4 -5 -4 -2 -0 -1 -2 -3 -3 -3 -3 -2 -1 -1 -1 -1 -1 -1 -1 -1 0 -0 -1 -1 -2 -2 -1 -1 -0 -1 -1 -1 -1 -1 -1 -1 -1 -1 -2 -3 -2 -1 0 1 1 2 5 5 1 0 4 8 9 7 3 1 6 8 6 1 -1 -1 -0 0 0 0 -0 -0 -0 -0 -0 -0 -0
2 2 2 2 1 1 1 0 -0 -1 -1 -2 -3 -3 -2 -3 -4 -5 -5 -1 0 0 0 1 1 1 0 -0 -1 -1 -1 -2 -3 -3 -2 -2 -2 -2 -2 -2 -2 -2 -2 -2 -1 -1 -1 -2 -3 -2 0 -0 -1 -1 -2 -2 -1 -1 -0 -0 -1 -1 -1 -1 -1 -1 -1 -2 -2 -3 -3 -1 -0 1 1 1 2 3 0 1 4 6 3 2 1 1 1 6 6 4 -1 -1 -0 0 1 0 0 -0 -0 -0 -0 -0 -1
1 2 2 2 2 1 1 1 1 1 -0 -2 -3 -3 -3 -4 -4 -5 -4 -1 1 0 -0 0 1 1 1 0 2 3 3 -0 -3 -4 -3 -3 -3 -3 -2 -2 -2 -2 -2 -2 -2 -1 -0 -1 -1 -1 -0 -0 -0 -1 -2 -2 -2 -1 -0 -0 -0 -1 -1 -1 -1 -1 -1 -1 -2 -3 -3 -2 -1 0 1 1 0 0 1 2 3 1 -1 -1 -0 1 -1 1 4 5 1 0 1 1 2 1 1 0 0 0 0 -0 -0
-1 -0 1 1 2 2 2 2 2 2 1 0 -0 -1 -1 -1 -2 -3 -3 -5 -4 -1 1 1 1 2 2 3 4 6 6 0 -3 -5 -4 -4 -4 -4 -4 -3 -3 -2 -2 -2 -2 -1 -0 -1 -1 -1 -1 -0 -0 -0 -0 -1 -2 -1 -1 -0 -0 -0 -1 -1 -1 -1 -1 -1 -2 -3 -3 -3 -1 -0 1 1 0 1 2 3 3 3 1 -0 -1 -2 -3 -4 0 5 6 2 2 3 3 3 2 1 1 1 1 0 -0
-1 -1 0 1 1 1 2 2 2 2 1 1 1 0 1 1 0 -1 -1 -3 -3 -3 -1 -1 1 2 1 1 2 3 5 1 -1 -2 -1 -3 -4 -4 -3 -3 -3 -3 -2 -2 -2 -2 -0 -1 -2 -3 -2 -0 1 0 -0 -1 -1 -1 -1 -1 -1 -0 -0 -0 -0 -0 -0 -1 -1 -2 -3 -3 -2 -1 0 0 0 0 2 3 2 2 3 0 -1 -3 -4 -4 -3 1 9 7 4 3 4 4 3 2 1 1 1 1 0
-1 -0 -0 0 0 0 1 1 1 1 2 2 1 1 1 2 1 0 -1 -0 -0 -1 -4 -2 -1 -0 -0 -1 -1 -0 2 1 -1 -2 -2 -3 -3 -3 -3 -2 -3 -3 -2 -2 -2 -2 -0 -1 -2 -3 -3 -0 1 1 0 -0 -0 -1 -1 -1 -1 -1 -0 -0 -0 -0 -0 -1 -1 -2 -3 -3 -2 -1 -0 -0 -0 -1 -1 3 3 1 2 2 0 -2 -2 -0 1 3 7 11 9 4 4 4 3 2 2 1 1 1 1
-1 -0 -0 0 0 0 0 0 0 0 2 3 2 2 1 2 2 1 -0 -0 -0 0 1 -0 -1 -2 -1 -2 -3 -2 -1 0 0 -1 -3 -3 -3 -2 -2 -2 -2 -2 -2 -2 -3 -2 -0 -1 -2 -2 -2 -2 -1 0 0 -0 -0 -0 -0 -0 -0 -0 -0 -0 -0 -0 -0 -0 -1 -1 -2 -3 -2 -2 -1 -0 -1 -1 -2 2 5 5 2 4 2 0 1 5 7 8 7 12 12 9 4 3 3 2 2 1 1 1 1
-1 -1 -0 0 0 0 0 -0 -1 -1 0 2 2 3 2 2 2 2 2 1 0 0 1 1 0 -0 -1 -2 -3 -3 -3 -0 0 -0 -2 -3 -2 -1 -0 -2 -2 -1 -2 -3 -2 -2 -1 -1 -1 -1 -1 -3 -2 -1 -0 -0 -0 -1 -1 -0 0 0 0 0 0 -0 -0 -0 -0 -1 -2 -2 -2 -2 -1 -1 -1 -1 -2 -1 3 5 3 2 4 6 4 7 9 10 8 8 10 10 5 3 2 2 2 2 1 1 1
-1 -0 -0 -0 0 0 1 0 -1 -1 -1 -0 1 2 2 2 2 2 2 2 1 1 1 1 0 -0 -0 -1 -2 -2 -1 1 2 1 -1 -1 -1 -0 0 -1 -1 -1 -2 -3 -2 -1 -1 -2 -2 -1 -1 -2 -1 -1 -0 -0 -0 -1 -2 -1 -1 -0 -0 -0 -1 -0 0 0 0 -0 -1 -2 -2 -2 -1 -1 -1 -1 -2 -2 -0 2 3 2 5 8 9 7 6 5 3 2 2 4 7 4 3 3 3 2 2 1 1
-2 -1 -0 0 0 0 0 0 -0 -1 -1 -1 -0 0 1 1 2 2 2 2 2 1 1 1 1 1 1 -0 -2 -2 0 3 3 2 1 0 0 0 -0 -1 -0 -0 -2 -3 -2 -2 -2 -3 -3 -2 -2 -1 -1 -1 -1 -0 -1 -1 -2 -2 -1 -1 -1 -2 -2 -2 -1 0 1 0 -0 -1 -2 -2 -2 -1 -1 -1 -2 -2 -2 -1 3 5 7 8 9 4 1 -1 -2 1 2 2 3 2 2 2 3 3 2 2 1
-2 -2 -1 -0 0 0 0 -0 -1 -1 -1 -0 -0 0 -0 0 1 2 2 1 2 2 1 1 1 1 2 0 -2 -3 -1 1 1 1 1 2 1 0 -1 -0 0 0 -2 -2 -1 -2 -3 -4 -3 -3 -3 -2 -1 -2 -2 -1 -1 -1 -1 -1 -1 -2 -2 -3 -3 -3 -2 -1 -0 0 0 -0 -1 -2 -2 -1 -1 -1 -1 -1 -2 -1 0 3 6 8 7 1 -2 -2 1 6 8 8 5 1 0 1 2 2 2 2 2
-2 -3 -3 -1 -0 0 0 -0 -1 -1 -1 -0 0 0 1 -0 -0 1 1 1 1 2 2 1 0 1 3 1 -0 -2 -2 -1 -1 -1 0 1 1 0 0 1 1 0 -1 -0 -1 -2 -4 -4 -4 -3 -3 -2 -2 -1 -1 -2 -2 -1 -1 -1 -1 -2 -3 -3 -3 -3 -3 -3 -2 -1 0 0 -1 -1 -2 -1 -1 -1 -1 -1 -1 -1 -0 2 5 6 4 -1 -1 2 7 8 8 8 9 4 1 -1 -0 1 1 1 1
-2 -2 -3 -2 -1 -0 -0 -0 -1 -1 -1 -1 -0 1 1 1 -0 -1 -0 0 0 1 3 2 0 0 2 3 2 -0 -2 -2 -1 -1 -1 0 -0 -0 1 2 2 1 -0 -0 -1 -2 -4 -4 -3 -3 -3 -2 -1 -1 -1 -2 -2 -1 -1 -1 -1 -2 -2 -3 -3 -2 -2 -3 -3 -2 -1 -0 -0 -1 -1 -1 -1 -1 -1 -1 -1 -1 0 1 2 2 0 -2 -0 4 9 3 1 3 7 8 6 3 0 0 1 1 1
-2 -1 -2 -2 -1 -1 -0 -1 -1 -2 -2 -1 -0 1 1 2 1 -1 -1 -1 -0 0 3 3 2 -0 -1 1 2 1 -2 -2 -1 -1 -1 1 1 0 1 2 2 1 -1 -1 -1 -2 -4 -4 -3 -2 -2 -1 -1 -1 -3 -3 -2 -1 -1 -1 -1 -2 -2 -2 -3 -2 -2 -3 -3 -3 -3 -1 -1 -1 -1 -1 -1 -1 -0 -1 -1 -1 -0 0 0 -0 -1 -2 0 4 5 -1 -1 2 6 8 9 8 6 3 1 1 1
-3 -2 -1 -1 -1 -1 -0 -1 -1 -1 -2 -1 -1 0 1 2 1 -0 -1 -2 -2 -1 1 4 3 1 -2 -1 1 1 -2 -3 -2 -1 -1 -1 0 1 2 2 1 0 0 -0 -1 -2 -3 -3 -3 -2 -1 -0 -1 -2 -4 -3 -2 -2 -2 -2 -2 -1 -1 -1 -2 -2 -3 -2 -2 -3 -3 -3 -2 -1 -1 -1 -1 -0 -0 -0 -1 -1 -1 -0 -0 -1 -1 -1 2 4 1 -2 0 5 7 7 8 8 9 5 3 2 2
-3 -2 -1 -1 -1 -0 -0 -0 -1 -1 -1 -1 -1 0 1 1 1 1 0 -2 -3 -3 -1 3 4 2 -0 -1 -0 1 -0 -2 -2 -0 -0 -1 -2 -1 -1 -0 0 1 2 2 0 -1 -1 -2 -2 -2 0 1 -1 -3 -4 -2 -2 -2 -2 -2 -1 -1 -1 -1 -2 -2 -3 -2 -2 -2 -2 -3 -3 -2 -1 -1 -1 -1 0 0 -0 -1 -1 -1 -1 -1 -2 -1 2 3 -1 -1 2 5 5 6 6 7 9 6 4 3 2
-2 -2 -1 -1 -1 -0 0 0 -1 -1 -1 -1 -0 0 1 1 1 1 1 -1 -2 -3 -3 1 3 3 1 -0 -0 0 1 -1 -1 0 1 -1 -2 -3 -2 -2 -2 -1 2 1 -0 -2 -1 -1 -1 -1 1 -0 -2 -4 -3 -2 -1 -1 -1 -1 -1 -1 -1 -1 -2 -2 -2 -1 -1 -1 -2 -3 -3 -3 -2 -2 -2 -1 -1 -0 0 -0 -1 -1 -1 -1 -2 -1 1 1 -1 0 1 2 1 3 5 6 6 4 4 4 2
-2 -2 -1 -1 -1 -1 0 0 -0 -1 -1 -1 -0 0 1 1 2 2 2 1 -0 -1 -3 -2 1 3 2 1 0 0 1 1 -0 -1 -1 -1 -2 -2 -2 -4 -3 -2 -0 -0 -1 -1 -0 0 0 0 -0 -1 -3 -3 -3 -2 -1 0 2 1 -0 -0 1 -0 -1 -1 -1 -0 -0 -1 -2 -2 -2 -2 -2 -2 -3 -3 -3 -0 1 1 -0 -0 -0 -1 -2 -1 1 2 1 1 1 0 -2 0 2 3 2 0 1 2 1
-2 -3 -3 -2 -2 -1 -0 -0 -0 -0 -1 -1 -1 -0 1 1 1 1 2 2 1 1 -2 -3 -2 1 3 2 1 0 -0 0 0 -0 -1 -2 -3 -4 -5 -5 -3 -1 -0 -1 -1 -1 -1 0 0 -1 -3 -3 -3 -2 -3 -2 -1 1 2 0 -0 0 2 -0 -1 -1 -0 -0 -0 -1 -1 -1 -1 -1 -1 -2 -3 -4 -4 -1 1 1 1 1 1 0 -1 -2 -0 1 3 5 4 2 -1 0 1 2 1 -1 -1 -0 0
-1 -2 -3 -3 -3 -2 -1 -1 -1 -0 -0 -1 -1 -0 0 0 1 1 1 1 1 1 0 -2 -3 -2 0 2 3 2 1 1 1 1 -1 -1 -2 -4 -5 -5 -3 -1 -0 -2 -2 -2 -2 -0 -0 -1 -3 -3 -3 -3 -3 -3 -1 0 -0 -1 -0 1 1 -0 -1 -1 -0 -0 -1 -0 0 1 1 0 -0 -2 -4 -5 -5 -2 0 1 1 2 2 1 1 -0 -1 -1 0 4 7 6 1 1 2 3 4 1 0 -0 -0
-0 -1 -2 -2 -3 -2 -2 -1 -1 -1 -0 -0 -0 -0 1 0 1 1 2 1 1 1 0 -1 -2 -3 -3 -1 1 3 3 2 2 2 0 -0 -1 -3 -4 -3 -3 -3 -2 -2 -2 -2 -0 1 0 -1 -1 -2 -3 -4 -4 -3 -3 -2 -3 -1 0 1 0 0 -0 -0 -0 -1 -1 -1 1 1 2 1 0 -1 -3 -4 -5 -3 -0 1 1 2 2 2 2 1 -0 -2 -3 -1 2 5 6 4 3 3 4 3 3 3 2
-0 -0 -0 -1 -2 -2 -2 -1 -1 -1 -0 -0 -0 -0 1 1 1 2 3 2 2 1 -0 -0 -1 -2 -4 -3 -1 2 3 3 3 3 2 1 -3 -5 -5 -2 -3 -4 -3 -1 0 1 1 2 1 -1 -2 -1 -2 -2 -2 -1 -2 -3 -3 -1 -0 -0 -0 0 1 1 0 -1 -1 -1 -0 1 2 2 1 -0 -1 -3 -5 -4 -1 1 0 1 2 3 3 2 0 -1 -2 -2 -1 2 7 6 5 4 3 4 6 6 4
1 1 0 -0 -1 -1 -1 -1 -1 -1 -1 -0 -0 -0 -0 1 1 1 2 3 3 2 -1 -0 1 1 -2 -3 -2 -1 2 3 2 1 1 1 -2 -5 -6 -1 -0 -2 -6 -4 -1 1 2 1 -0 -1 -2 -2 -2 -1 -1 -0 -1 -2 -2 -1 -2 -2 -2 0 1 1 1 -1 -1 -2 -1 1 2 2 2 1 0 -1 -3 -4 -3 -1 -0 -0 1 2 2 2 1 -1 -2 -2 -1 0 3 4 5 6 5 6 7 6 5
1 1 1 1 1 1 1 1 1 0 -0 -1 -0 -0 -0 0 1 1 1 2 3 2 -0 -1 -0 2 1 -1 -2 -2 -0 2 2 1 1 -2 -2 -1 1 0 -3 -6 -8 -9 -8 -5 1 -0 -1 -2 -1 -1 -1 -1 -1 -1 -1 -2 -2 -3 -4 -5 -4 -2 -0 1 1 -1 -2 -2 -1 0 1 2 2 2 1 1 -1 -3 -3 -3 -2 -2 -1 -0 1 1 0 -1 -2 -1 -1 -0 0 1 3 5 7 9 7 5 3
2 2 2 1 1 1 1 2 2 2 1 -1 -2 -1 -1 -1 0 1 1 1 2 2 2 -0 -2 -2 -1 -0 -0 -0 0 1 1 1 3 -1 -2 1 5 4 -0 -6 -13 -11 -10 -8 -3 -3 -3 -3 -1 -1 -1 -0 -0 0 -1 -2 -2 -1 -3 -5 -5 -3 -1 1 1 -0 -1 -1 -0 0 1 2 2 2 2 2 1 -1 -2 -3 -4 -3 -2 -2 -1 -1 -1 -1 -1 -1 -0 0 0 1 1 3 7 7 7 5 2
2 2 2 1 1 1 1 1 1 2 1 -0 -1 -2 -2 -1 -1 -0 0 1 1 2 2 3 1 -1 -3 0 1 0 2 3 2 2 5 4 2 2 3 3 1 -3 -5 -2 -4 -7 -9 -7 -7 -6 -3 -0 -1 -1 -0 -0 -1 -2 -0 -0 -2 -3 -4 -3 -1 0 1 -1 -1 -1 -0 0 1 1 1 2 2 2 2 1 -0 -2 -3 -4 -3 -3 -2 -2 -2 -1 -2 -1 1 1 0 0 1 2 5 6 7 7 6
1 2 2 2 1 1 -0 -0 0 0 1 1 0 -1 -2 -1 -1 -1 -0 1 1 1 1 3 3 2 -0 -0 -1 -1 1 3 2 1 2 6 6 4 2 -2 0 4 3 3 1 -4 -13 -5 -4 -6 -5 -1 -0 -1 -1 -1 -1 -1 -0 -0 -0 -1 -1 -1 -1 -1 -2 -2 -1 -0 -0 -0 0 0 -0 0 1 2 2 2 1 0 -1 -3 -3 -3 -3 -3 -2 -1 -2 -1 1 2 -0 -1 -0 0 -0 3 7 9 8
-0 1 1 2 2 1 1 1 1 0 0 1 1 -0 -1 -1 -0 0 0 1 1 1 0 2 2 1 0 -1 -2 -1 -1 2 2 1 -0 4 7 7 3 -2 1 5 4 2 -0 -5 -14 -3 -0 -3 -5 -3 -1 -1 -3 -3 -2 -2 -1 -0 0 0 1 1 -1 -2 -3 -2 -0 1 0 -1 -0 -0 -0 -0 0 1 2 2 2 1 0 -1 -2 -3 -3 -2 -2 -1 -2 -2 -0 1 -0 -1 -1 -1 -1 -1 1 5 8
-1 -0 0 1 2 2 1 1 1 1 1 1 1 1 0 0 1 1 1 1 2 3 2 1 1 1 3 1 -1 -2 -1 -1 0 2 0 2 4 6 7 5 5 6 7 0 -8 -11 -6 2 0 -5 -11 -6 -3 -3 -5 -3 -3 -2 -2 -1 -1 -0 1 1 -1 -2 -2 -1 1 1 0 1 1 0 -1 -1 -0 0 2 3 3 2 1 -0 -1 -2 -3 -3 -2 -2 -2 -2 -2 -1 -1 -1 -1 -1 -1 -3 -3 1 8
-1 -1 -1 0 1 1 1 0 -0 -0 0 1 1 1 0 0 0 1 1 2 2 2 2 1 1 1 4 3 1 -1 -3 -3 -2 1 3 3 4 6 8 6 4 3 7 2 -0 2 11 10 4 -3 -8 -5 -2 -1 -2 -2 -2 -2 -2 -2 -2 -1 -0 -0 -1 -2 -1 -1 -1 -1 -1 1 1 1 -1 -1 -1 -1 1 2 3 2 1 1 -0 -2 -3 -4 -4 -3 -3 -2 -2 -3 -3 -1 -1 -1 -1 -3 -3 -0 6
-1 -1 -0 -0 0 1 1 1 0 -0 -0 0 0 0 -0 0 0 1 1 2 2 2 2 2 2 2 2 2 2 1 -2 -2 -2 -1 3 4 3 3 4 4 3 2 -2 -1 1 5 12 7 2 -1 -3 -5 -3 -0 -0 -1 -1 -1 -2 -2 -2 -2 -2 -1 -2 -2 -3 -3 -2 -2 -2 -1 -0 0 0 -1 -1 -1 -0 1 2 2 2 1 1 -1 -2 -3 -4 -4 -4 -3 -3 -3 -3 -1 -0 -0 -1 -2 -3 -3 3
-0 -0 0 0 1 1 1 1 1 1 0 -0 -0 -1 -1 -1 0 1 1 2 2 2 1 3 3 2 0 1 2 1 -1 -1 -1 0 2 1 1 2 3 3 3 4 4 4 1 2 8 5 1 -2 -1 -3 -4 -4 -4 -1 -0 -1 -2 -1 -1 -1 -1 -1 -1 -2 -3 -3 -2 -1 -1 -2 -2 -1 0 -1 -1 -2 -1 1 1 1 1 1 1 0 -1 -2 -3 -3 -3 -3 -3 -3 -3 -1 -1 -1 -1 -2 -3 -4 -2
-1 -1 -1 -0 0 1 1 1 1 1 1 0 -0 -1 -1 -1 -0 0 0 0 1 2 3 3 2 2 1 2 2 1 -1 -3 -2 1 4 -0 -2 -1 2 3 3 3 5 4 3 3 7 5 4 4 4 1 -1 -3 -7 -4 -2 -2 -2 -1 -1 -1 -1 -1 -1 -1 -2 -2 -1 -1 -1 -2 -1 -0 0 -0 -1 -2 -2 -0 0 0 0 0 0 0 -0 -1 -1 -2 -2 -2 -3 -2 -2 -1 -1 -1 -2 -2 -2 -3 -4
-1 -1 -2 -2 -2 -1 -0 -0 0 0 1 0 0 0 -0 -0 -1 -1 -1 -1 -0 1 3 3 2 2 2 3 3 2 1 -3 -3 -1 4 2 0 -1 0 3 3 2 2 2 2 3 3 3 5 8 7 3 1 -0 -4 -3 -3 -3 -3 -3 -2 -1 -1 -2 -2 -1 -1 -1 -1 -1 -1 -2 -1 -1 -0 0 -0 -0 -1 -1 -0 0 1 0 0 0 -0 -0 -0 -1 -2 -3 -3 -2 -1 -1 -1 -1 -3 -1 -1 -1 -3
Height
1541 1541 1541 1541 1541 1541 1541 1541 1541 1541 1541 1541 1541 1541 1541 1541 1541 1541 1541 1541 1542 1542 1542 1542 1542 1542 1543 1543 1543 1543 1543 1543 1543 1543 1544 1544 1544 1544 1545 1545 1545 1546 1546 1546 1546 1546 1546 1546 1547 1547 1547 1547 1548 1548 1549 1549 1549 1549 1550 1551 1551 1551 1551 1551 1551 1552 1552 1552 1553 1553 1553 1553 1554 1554 1555 1555 1555 1555 1555 1555 1555 1556 1556 1556 1556 1556 1556 1557 1557 1557 1557 1557 1557 1557 1557 1558 1558 1558 1558 1558 1559 1559 1559
1541 1541 1541 1541 1541 1541 1540 1540 1540 1540 1540 1540 1540 1540 1540 1540 1540 1540 1540 1541 1541 1541 1541 1541 1541 1541 1542 1542 1542 1542 1542 1541 1541 1542 1543 1543 1543 1543 1544 1544 1545 1545 1545 1545 1545 1546 1546 1546 1546 1546 1547 1547 1547 1548 1548 1548 1549 1549 1549 1550 1550 1551 1551 1551 1551 1551 1552 1552 1552 1552 1553 1553 1553 1554 1554 1554 1555 1555 1555 1555 1555 1555 1555 1556 1556 1556 1556 1556 1556 1556 1556 1556 1557 1557 1557 1557 1557 1558 1558 1558 1558 1559 1559
1540 1540 1540 1540 1540 1540 1539 1539 1539 1539 1539 1539 1539 1539 1539 1539 1539 1539 1539 1539 1540 1540 1540 1541 1541 1540 1540 1541 1541 1541 1541 1541 1541 1541 1541 1542 1542 1542 1543 1543 1544 1544 1544 1544 1545 1545 1545 1545 1546 1546 1546 1546 1546 1547 1547 1548 1548 1548 1549 1549 1550 1550 1550 1551 1551 1551 1551 1551 1552 1552 1552 1552 1553 1553 1554 1554 1554 1554 1554 1554 1554 1555 1555 1555 1556 1556 1556 1556 1556 1556 1556 1556 1556 1556 1557 1557 1557 1557 1558 1558 1558 1558 1559
1540 1539 1539 1539 1539 1539 1539 1538 1538 1538 1538 1538 1538 1538 1538 1538 1538 1538 1538 1539 1539 1539 1539 1540 1540 1539 1540 1540 1540 1540 1540 1541 1541 1541 1541 1541 1541 1541 1541 1542 1542 1543 1543 1544 1544 1544 1544 1544 1545 1545 1545 1546 1546 1546 1546 1547 1547 1548 1548 1548 1549 1549 1550 1550 1550 1551 1551 1551 1551 1551 1552 1552 1552 1552 1553 1553 1554 1554 1553 1554 1554 1554 1555 1555 1555 1555 1556 1556 1556 1556 1556 1556 1556 1556 1556 1557 1557 1557 1557 1557 1558 1558 1558
1539 1539 1539 1538 1538 1538 1538 1537 1537 1537 1537 1537 1537 1537 1537 1537 1537 1537 1537 1538 1538 1538 1538 1539 1539 1538 1538 1539 1539 1539 1539 1539 1540 1540 1540 1541 1541 1541 1541 1541 1541 1541 1542 1542 1543 1543 1543 1544 1544 1544 1545 1545 1545 1545 1546 1546 1546 1547 1547 1548 1548 1548 1549 1549 1550 1550 1550 1551 1551 1551 1551 1551 1551 1552 1552 1552 1553 1553 1553 1553 1553 1554 1554 1554 1555 1555 1555 1555 1555 1555 1556 1556 1556 1556 1556 1556 1556 1557 1557 1557 1557 1558 1558
1538 1538 1538 1538 1538 1537 1537 1537 1536 1536 1536 1536 1536 1537 1537 1537 1536 1536 1536 1537 1537 1537 1537 1537 1537 1537 1537 1538 1538 1538 1539 1539 1539 1539 1540 1540 1540 1540 1540 1540 1540 1541 1541 1541 1542 1542 1543 1543 1543 1543 1544 1544 1544 1544 1545 1545 1545 1546 1546 1547 1547 1547 1548 1549 1549 1549 1550 1550 1550 1550 1549 1549 1550 1551 1551 1551 1552 1552 1552 1552 1553 1553 1553 1554 1554 1554 1554 1555 1555 1555 1555 1555 1556 1556 1556 1556 1556 1556 1556 1557 1557 1557 1557
1537 1537 1537 1537 1537 1537 1537 1536 1536 1536 1535 1536 1536 1536 1536 1536 1536 1535 1535 1535 1536 1536 1536 1536 1536 1536 1536 1537 1537 1537 1537 1537 1537 1538 1538 1538 1539 1539 1539 1539 1539 1540 1541 1541 1541 1541 1542 1542 1542 1543 1543 1543 1543 1544 1544 1544 1544 1545 1545 1546 1546 1546 1547 1547 1548 1549 1549 1549 1550 1549 1548 1549 1550 1550 1551 1551 1551 1551 1551 1551 1552 1552 1553 1553 1553 1554 1554 1554 1554 1555 1555 1555 1555 1555 1555 1556 1556 1556 1556 1556 1557 1557 1557
1537 1537 1537 1536 1536 1536 1536 1535 1535 1535 1535 1534 1534 1535 1535 1535 1535 1535 1535 1535 1535 1535 1535 1535 1535 1535 1535 1536 1536 1536 1536 1536 1536 1536 1537 1537 1537 1537 1538 1538 1539 1539 1540 1540 1540 1540 1541 1541 1541 1542 1542 1542 1542 1542 1543 1543 1543 1544 1544 1545 1545 1546 1546 1546 1547 1548 1548 1548 1548 1549 1549 1549 1549 1549 1550 1550 1550 1551 1551 1551 1551 1552 1552 1552 1553 1553 1553 1553 1554 1554 1554 1554 1555 1555 1555 1555 1555 1556 1556 1556 1556 1556 1557
1536 1536 1536 1536 1536 1535 1535 1534 1534 1534 1534 1533 1533 1534 1534 1534 1534 1534 1533 1534 1534 1534 1534 1534 1534 1534 1534 1534 1535 1535 1535 1535 1536 1536 1536 1536 1536 1536 1537 1537 1537 1538 1538 1538 1538 1538 1539 1540 1540 1541 1541 1541 1541 1541 1542 1542 1542 1543 1543 1544 1544 1545 1545 1546 1546 1546 1547 1547 1547 1547 1548 1548 1549 1549 1549 1549 1550 1550 1550 1550 1551 1551 1551 1551 1552 1552 1552 1553 1553 1553 1554 1554 1554 1554 1554 1555 1555 1555 1555 1556 1556 1556 1556
1535 1535 1535 1535 1534 1534 1534 1533 1533 1533 1533 1533 1533 1532 1532 1532 1532 1532 1532 1532 1533 1533 1533 1533 1533 1533 1533 1533 1533 1534 1534 1534 1534 1534 1535 1535 1535 1536 1536 1536 1536 1536 1536 1537 1537 1537 1537 1538 1539 1539 1540 1540 1540 1541 1541 1541 1541 1541 1542 1542 1543 1543 1544 1544 1545 1545 1546 1546 1546 1546 1547 1547 1548 1548 1549 1549 1549 1549 1549 1550 1550 1550 1551 1551 1551 1551 1551 1552 1552 1553 1553 1553 1553 1554 1554 1554 1554 1555 1555 1555 1556 1556 1556
1535 1534 1534 1534 1533 1533 1533 1532 1532 1532 1532 1531 1531 1531 1531 1531 1531 1531 1531 1531 1531 1532 1532 1532 1532 1532 1532 1532 1532 1533 1533 1533 1533 1533 1533 1534 1534 1534 1534 1535 1535 1535 1536 1536 1536 1536 1537 1537 1537 1537 1538 1539 1539 1539 1539 1540 1540 1540 1541 1541 1542 1542 1543 1543 1544 1544 1545 1545 1545 1545 1546 1546 1547 1547 1547 1547 1548 1548 1549 1549 1549 1550 1550 1550 1550 1551 1551 1551 1551 1552 1552 1552 1553 1553 1553 1554 1554 1554 1555 1555 1555 1556 1556
1534 1534 1533 1533 1532 1532 1531 1531 1531 1531 1531 1531 1531 1531 1531 1530 1530 1530 1530 1530 1530 1530 1531 1531 1531 1531 1531 1531 1531 1532 1532 1532 1532 1532 1532 1533 1533 1533 1533 1534 1534 1534 1534 1535 1535 1535 1536 1536 1536 1536 1536 1537 1537 1538 1538 1538 1538 1539 1539 1540 1541 1541 1541 1542 1542 1543 1543 1543 1544 1544 1545 1546 1546 1546 1546 1546 1546 1547 1547 1548 1548 1549 1549 1549 1550 1550 1550 1550 1551 1551 1551 1552 1552 1552 1553 1553 1553 1554 1554 1554 1555 1555 1555
1533 1533 1533 1532 1532 1531 1531 1531 1530 1530 1530 1530 1529 1529 1529 1529 1529 1529 1529 1529 1529 1529 1530 1530 1530 1530 1530 1530 1531 1531 1531 1531 1531 1531 1531 1531 1532 1532 1532 1532 1532 1533 1533 1534 1534 1534 1534 1535 1535 1535 1535 1535 1536 1536 1536 1537 1537 1537 1538 1539 1539 1540 1540 1541 1541 1541 1542 1542 1542 1543 1543 1544 1545 1545 1545 1545 1546 1546 1546 1547 1547 1548 1548 1549 1549 1549 1549 1549 1550 1550 1551 1551 1551 1552 1552 1552 1553 1553 1553 1554 1554 1554 1555
1532 1532 1532 1531 1531 1531 1530 1530 1529 1529 1529 1529 1528 1528 1528 1528 1528 1528 1528 1528 1528 1528 1529 1529 1529 1529 1529 1529 1529 1529 1530 1530 1530 1530 1530 1530 1531 1531 1531 1531 1531 1531 1532 1532 1532 1533 1533 1533 1533 1533 1533 1533 1534 1534 1535 1535 1535 1536 1536 1537 1538 1538 1539 1539 1540 1540 1541 1541 1541 1541 1542 1543 1543 1544 1544 1545 1545 1545 1545 1546 1546 1547 1547 1548 1548 1548 1548 1549 1549 1549 1550 1551 1551 1551 1551 1552 1552 1552 1553 1553 1553 1554 1554
1531 1531 1531 1531 1530 1530 1529 1529 1529 1528 1528 1528 1527 1527 1527 1527 1527 1527 1527 1527 1527 1527 1528 1528 1528 1528 1528 1528 1528 1528 1528 1528 1528 1529 1529 1529 1529 1530 1530 1530 1530 1531 1531 1531 1531 1531 1531 1531 1532 1532 1532 1532 1532 1532 1533 1533 1534 1534 1535 1536 1536 1537 1537 1538 1538 1539 1539 1539 1540 1540 1541 1541 1542 1542 1543 1543 1544 1544 1545 1545 1545 1546 1546 1546 1547 1547 1547 1548 1548 1549 1549 1550 1550 1551 1551 1551 1551 1552 1552 1552 1553 1553 1553
1530 1530 1530 1529 1529 1529 1529 1528 1528 1527 1527 1527 1526 1526 1526 1526 1526 1526 1526 1526 1526 1526 1526 1526 1526 1526 1527 1527 1527 1527 1527 1527 1527 1527 1528 1528 1528 1528 1529 1529 1529 1529 1529 1529 1529 1530 1530 1530 1530 1530 1530 1531 1531 1531 1531 1531 1532 1533 1533 1534 1535 1535 1536 1536 1537 1537 1537 1538 1538 1539 1540 1540 1541 1541 1541 1542 1543 1543 1544 1544 1544 1545 1545 1546 1546 1546 1546 1547 1547 1548 1548 1549 1549 1550 1550 1551 1551 1551 1551 1551 1552 1552 1552
1530 1529 1529 1529 1528 1528 1528 1527 1527 1527 1526 1526 1526 1526 1525 1525 1525 1525 1524 1524 1524 1524 1524 1524 1525 1525 1526 1526 1526 1526 1526 1526 1526 1526 1526 1527 1527 1527 1528 1528 1528 1528 1528 1528 1528 1528 1528 1528 1528 1529 1529 1529 1529 1530 1530 1530 1530 1531 1532 1533 1533 1534 1534 1535 1536 1536 1536 1536 1537 1537 1538 1539 1539 1540 1540 1541 1541 1541 1542 1543 1543 1543 1544 1544 1545 1545 1546 1546 1546 1547 1547 1548 1548 1549 1549 1550 1550 1550 1551 1551 1551 1551 1552
1529 1529 1528 1528 1528 1527 1527 1526 1526 1526 1526 1525 1525 1525 1524 1524 1524 1524 1523 1523 1523 1523 1523 1523 1523 1524 1524 1525 1525 1525 1526 1526 1526 1526 1526 1526 1526 1526 1526 1526 1526 1526 1526 1526 1526 1526 1526 1526 1526 1527 1527 1527 1528 1528 1528 1528 1529 1529 1530 1531 1532 1532 1533 1533 1534 1534 1534 1535 1536 1536 1536 1536 1537 1538 1539 1539 1540 1540 1541 1541 1542 1542 1543 1543 1543 1544 1544 1545 1545 1546 1546 1547 1547 1548 1548 1549 1549 1549 1550 1550 1550 1551 1551
1529 1528 1528 1527 1527 1526 1526 1526 1526 1525 1525 1524 1524 1524 1523 1523 1523 1523 1523 1523 1522 1522 1522 1522 1522 1523 1523 1523 1523 1524 1525 1525 1525 1525 1524 1525 1525 1525 1525 1525 1525 1525 1525 1525 1525 1524 1524 1524 1525 1525 1525 1526 1526 1526 1526 1527 1527 1528 1529 1529 1530 1531 1531 1531 1532 1532 1533 1533 1534 1535 1535 1534 1535 1536 1537 1537 1538 1539 1539 1540 1540 1541 1541 1542 1542 1543 1543 1544 1544 1545 1545 1546 1546 1547 1547 1548 1548 1548 1549 1549 1549 1550 1550
1527 1527 1526 1526 1525 1525 1525 1525 1524 1524 1524 1523 1523 1522 1522 1521 1522 1522 1522 1522 1522 1522 1521 1521 1522 1522 1522 1522 1523 1523 1524 1523 1523 1523 1523 1523 1523 1523 1524 1524 1524 1523 1523 1523 1523 1523 1523 1523 1523 1523 1523 1524 1524 1525 1525 1525 1526 1526 1527 1527 1528 1529 1529 1530 1530 1531 1531 1531 1532 1534 1535 1534 1534 1535 1536 1536 1536 1537 1538 1538 1538 1539 1540 1540 1541 1541 1542 1542 1543 1543 1544 1545 1545 1546 1546 1547 1547 1548 1548 1548 1549 1549 1549
1525 1525 1525 1524 1524 1523 1523 1523 1523 1523 1523 1522 1522 1521 1521 1520 1521 1521 1521 1521 1521 1521 1521 1521 1521 1521 1521 1521 1522 1522 1522 1522 1522 1522 1522 1522 1522 1522 1522 1522 1522 1522 1522 1522 1522 1522 1522 1521 1521 1521 1521 1522 1522 1522 1523 1523 1524 1524 1525 1526 1526 1527 1527 1528 1529 1529 1529 1530 1531 1532 1533 1533 1533 1534 1534 1535 1535 1535 1536 1536 1537 1537 1538 1539 1540 1540 1541 1541 1542 1542 1543 1544 1544 1545 1545 1546 1546 1547 1547 1547 1548 1548 1548
1525 1524 1524 1524 1523 1522 1522 1522 1522 1522 1522 1521 1521 1521 1520 1520 1520 1520 1520 1520 1520 1520 1520 1521 1521 1521 1520 1520 1520 1520 1521 1521 1521 1521 1521 1520 1520 1520 1521 1521 1521 1521 1521 1521 1521 1521 1521 1520 1520 1520 1520 1520 1520 1521 1521 1521 1522 1523 1523 1524 1525 1525 1526 1526 1527 1527 1528 1528 1529 1530 1531 1531 1531 1532 1533 1533 1533 1533 1534 1535 1536 1536 1537 1538 1539 1539 1540 1540 1541 1541 1542 1542 1543 1544 1544 1545 1545 1546 1546 1547 1547 1547 1547
1525 1524 1523 1523 1522 1521 1521 1521 1521 1521 1521 1520 1520 1520 1519 1519 1519 1519 1519 1519 1518 1518 1519 1519 1519 1520 1519 1519 1519 1519 1519 1519 1519 1519 1520 1520 1519 1520 1520 1520 1520 1520 1520 1519 1519 1519 1519 1519 1519 1519 1518 1518 1519 1519 1519 1520 1520 1521 1521 1522 1523 1523 1524 1525 1525 1526 1526 1527 1527 1528 1529 1529 1530 1530 1531 1531 1531 1531 1532 1533 1534 1535 1536 1537 1537 1538 1538 1539 1540 1540 1541 1541 1542 1542 1543 1544 1544 1545 1545 1546 1546 1546 1547
1525 1524 1523 1522 1521 1521 1521 1521 1520 1520 1520 1519 1519 1518 1518 1518 1518 1518 1518 1517 1517 1517 1517 1518 1518 1518 1518 1517 1517 1517 1518 1518 1518 1518 1518 1518 1518 1518 1518 1518 1518 1518 1518 1518 1518 1518 1518 1518 1517 1517 1517 1517 1517 1517 1518 1518 1519 1519 1520 1521 1521 1521 1522 1523 1523 1524 1525 1525 1526 1526 1527 1528 1528 1529 1529 1529 1529 1530 1531 1532 1533 1533 1534 1535 1535 1536 1537 1538 1539 1539 1540 1540 1541 1541 1542 1542 1543 1544 1544 1545 1545 1546 1546
1524 1523 1523 1522 1521 1521 1520 1520 1520 1519 1519 1518 1517 1517 1517 1517 1517 1517 1516 1516 1516 1516 1516 1516 1516 1516 1516 1516 1516 1516 1516 1516 1516 1516 1516 1516 1516 1516 1516 1516 1516 1516 1517 1516 1516 1516 1516 1516 1516 1516 1516 1516 1516 1516 1516 1516 1517 1517 1518 1518 1519 1520 1520 1521 1521 1522 1523 1523 1524 1525 1525 1526 1527 1527 1527 1527 1528 1529 1530 1531 1531 1532 1531 1533 1534 1535 1535 1536 1537 1538 1538 1539 1539 1540 1541 1541 1542 1542 1543 1544 1544 1545 1545
1523 1523 1522 1521 1521 1520 1520 1519 1519 1518 1518 1517 1516 1516 1516 1516 1516 1515 1515 1515 1515 1514 1514 1515 1515 1515 1514 1514 1514 1514 1515 1515 1515 1515 1515 1515 1515 1515 1515 1515 1515 1515 1515 1515 1515 1515 1515 1515 1515 1515 1515 1514 1514 1514 1514 1515 1515 1516 1516 1516 1517 1517 1518 1519 1520 1520 1521 1522 1522 1523 1524 1524 1525 1526 1526 1527 1527 1528 1529 1530 1530 1530 1530 1531 1533 1534 1534 1535 1536 1536 1537 1537 1538 1539 1539 1540 1541 1541 1542 1542 1543 1543 1544
1522 1522 1521 1521 1520 1519 1519 1518 1518 1517 1517 1516 1516 1515 1515 1514 1514 1514 1513 1513 1513 1513 1513 1513 1513 1512 1513 1513 1512 1512 1512 1512 1513 1513 1513 1513 1513 1513 1513 1513 1513 1513 1513 1513 1513 1513 1513 1513 1513 1513 1513 1513 1513 1513 1513 1513 1513 1514 1514 1515 1515 1516 1516 1517 1517 1518 1519 1520 1521 1521 1522 1522 1523 1524 1525 1526 1526 1526 1528 1528 1528 1528 1529 1530 1531 1533 1533 1533 1534 1535 1535 1536 1537 1537 1538 1539 1539 1540 1541 1541 1542 1542 1543
1521 1521 1520 1519 1519 1518 1518 1517 1517 1516 1516 1515 1515 1514 1514 1513 1512 1512 1512 1512 1512 1511 1511 1511 1511 1511 1511 1511 1511 1511 1511 1511 1511 1511 1511 1511 1511 1511 1511 1511 1511 1511 1511 1512 1512 1511 1511 1511 1511 1511 1512 1511 1511 1511 1511 1511 1511 1512 1512 1513 1513 1514 1514 1515 1516 1516 1517 1518 1519 1520 1520 1521 1521 1522 1523 1524 1524 1525 1526 1526 1527 1527 1528 1528 1530 1531 1531 1532 1532 1533 1534 1535 1536 1536 1537 1537 1538 1539 1539 1540 1541 1541 1541
1520 1520 1519 1518 1518 1517 1516 1516 1515 1515 1514 1514 1513 1513 1512 1512 1511 1511 1511 1510 1510 1510 1510 1510 1510 1510 1510 1510 1509 1509 1509 1509 1509 1509 1509 1510 1510 1510 1510 1510 1510 1510 1510 1510 1510 1510 1510 1510 1510 1510 1510 1510 1510 1510 1510 1510 1510 1511 1511 1511 1512 1512 1512 1513 1514 1514 1515 1516 1517 1517 1518 1519 1520 1521 1521 1522 1523 1524 1524 1525 1526 1526 1527 1527 1527 1528 1529 1530 1531 1532 1533 1533 1534 1535 1536 1536 1537 1537 1538 1539 1539 1540 1540
1519 1518 1518 1517 1516 1516 1515 1515 1514 1513 1513 1512 1511 1511 1511 1511 1510 1509 1509 1508 1508 1508 1508 1508 1508 1508 1508 1508 1508 1508 1507 1507 1507 1507 1508 1508 1508 1508 1508 1508 1508 1508 1508 1508 1508 1508 1508 1508 1508 1509 1509 1509 1509 1509 1509 1509 1509 1509 1509 1510 1510 1511 1511 1511 1512 1512 1513 1514 1515 1516 1516 1517 1518 1519 1520 1521 1522 1523 1523 1524 1525 1525 1526 1526 1526 1527 1528 1529 1530 1531 1531 1532 1533 1534 1534 1535 1536 1536 1537 1537 1538 1539 1539
1517 1517 1516 1516 1515 1515 1514 1513 1513 1512 1511 1511 1510 1510 1510 1509 1508 1508 1507 1506 1506 1506 1506 1506 1506 1506 1506 1506 1506 1506 1506 1506 1506 1506 1506 1506 1506 1506 1506 1506 1506 1506 1507 1507 1506 1506 1506 1506 1506 1507 1507 1507 1507 1507 1507 1507 1507 1508 1508 1508 1508 1509 1509 1509 1510 1510 1511 1511 1512 1513 1514 1515 1516 1517 1517 1518 1520 1521 1522 1523 1524 1525 1524 1525 1526 1526 1527 1528 1529 1529 1530 1531 1531 1532 1533 1534 1534 1535 1536 1536 1537 1537 1538
1516 1516 1515 1514 1514 1513 1512 1512 1511 1511 1510 1509 1509 1509 1508 1508 1507 1507 1506 1506 1505 1505 1504 1504 1504 1504 1504 1504 1504 1504 1504 1504 1504 1504 1504 1504 1504 1504 1504 1505 1505 1505 1505 1505 1505 1505 1505 1505 1505 1505 1505 1505 1505 1506 1506 1506 1506 1506 1506 1506 1507 1507 1507 1508 1508 1508 1509 1510 1510 1511 1512 1513 1514 1515 1516 1516 1517 1518 1520 1521 1522 1522 1523 1523 1524 1525 1526 1526 1527 1528 1529 1529 1530 1531 1531 1532 1533 1534 1534 1535 1536 1536 1537
1514 1514 1513 1513 1512 1511 1511 1510 1510 1509 1508 1508 1507 1507 1507 1506 1506 1506 1505 1505 1504 1504 1503 1503 1502 1503 1502 1502 1502 1502 1502 1502 1502 1502 1502 1502 1502 1502 1503 1503 1503 1503 1503 1503 1503 1503 1503 1503 1503 1503 1503 1503 1503 1504 1504 1504 1504 1505 1505 1505 1505 1506 1506 1506 1506 1507 1507 1507 1508 1509 1510 1511 1512 1513 1514 1514 1515 1516 1517 1518 1519 1520 1521 1521 1522 1523 1524 1525 1525 1526 1528 1528 1529 1529 1530 1531 1531 1532 1533 1534 1534 1535 1536
1512 1512 1511 1511 1510 1510 1509 1508 1508 1507 1507 1506 1506 1506 1505 1505 1504 1504 1503 1503 1503 1503 1502 1502 1501 1501 1501 1501 1501 1501 1501 1501 1501 1501 1501 1500 1501 1501 1501 1501 1501 1501 1501 1501 1501 1501 1501 1501 1501 1501 1501 1501 1502 1502 1502 1502 1502 1503 1503 1503 1504 1504 1504 1504 1505 1505 1505 1506 1506 1507 1508 1509 1510 1511 1511 1512 1513 1514 1515 1516 1517 1519 1519 1518 1519 1521 1522 1523 1523 1524 1526 1527 1527 1528 1528 1529 1530 1531 1532 1532 1533 1534 1534
1511 1510 1510 1509 1508 1508 1507 1507 1506 1506 1505 1505 1504 1504 1504 1503 1503 1502 1502 1501 1501 1501 1501 1501 1500 1500 1499 1499 1499 1499 1499 1499 1499 1499 1499 1499 1499 1499 1499 1499 1499 1499 1499 1499 1499 1499 1499 1499 1499 1499 1500 1500 1501 1501 1501 1501 1501 1501 1501 1501 1502 1502 1502 1503 1503 1503 1503 1504 1504 1505 1506 1506 1507 1508 1509 1510 1511 1512 1513 1514 1516 1517 1518 1517 1517 1519 1521 1522 1522 1523 1524 1525 1526 1526 1526 1527 1528 1529 1530 1531 1531 1532 1533
1509 1508 1508 1507 1506 1506 1506 1505 1504 1504 1503 1503 1502 1502 1502 1501 1501 1501 1500 1500 1499 1499 1499 1499 1498 1498 1498 1497 1497 1497 1497 1497 1497 1497 1497 1497 1497 1497 1497 1497 1497 1497 1497 1497 1497 1497 1497 1497 1497 1497 1498 1498 1499 1499 1499 1499 1499 1499 1499 1499 1500 1500 1501 1501 1501 1501 1501 1502 1502 1503 1504 1504 1505 1506 1507 1508 1509 1510 1511 1512 1514 1515 1516 1516 1516 1518 1520 1520 1521 1522 1523 1524 1524 1524 1525 1525 1526 1528 1529 1530 1530 1531 1531
1508 1507 1506 1505 1505 1504 1503 1503 1502 1501 1501 1501 1501 1500 1500 1500 1499 1499 1499 1498 1498 1497 1497 1496 1496 1496 1496 1496 1495 1495 1495 1495 1495 1495 1495 1495 1495 1495 1495 1495 1495 1495 1495 1495 1495 1495 1496 1496 1496 1496 1496 1496 1496 1496 1497 1497 1497 1497 1497 1497 1498 1498 1498 1499 1499 1499 1500 1500 1501 1501 1502 1502 1503 1504 1505 1506 1507 1508 1509 1510 1511 1512 1513 1513 1515 1516 1517 1518 1519 1520 1521 1522 1522 1522 1523 1523 1525 1526 1527 1528 1529 1530 1530
1506 1505 1504 1503 1503 1502 1501 1501 1500 1499 1499 1499 1498 1498 1498 1497 1497 1497 1497 1496 1496 1496 1495 1495 1494 1494 1494 1494 1494 1494 1493 1493 1493 1493 1493 1493 1493 1493 1493 1493 1493 1493 1493 1493 1493 1493 1493 1494 1494 1494 1494 1494 1494 1495 1495 1495 1495 1495 1496 1496 1496 1496 1496 1496 1497 1497 1498 1498 1499 1499 1500 1501 1501 1502 1503 1504 1505 1506 1506 1508 1509 1510 1511 1512 1513 1514 1515 1517 1518 1519 1520 1520 1520 1521 1521 1522 1523 1525 1526 1527 1528 1528 1529
1505 1503 1502 1502 1501 1500 1499 1499 1498 1497 1497 1496 1496 1496 1496 1495 1495 1495 1495 1495 1494 1494 1493 1493 1492 1492 1493 1492 1492 1492 1492 1492 1492 1491 1491 1491 1491 1491 1491 1491 1491 1491 1491 1491 1491 1491 1491 1491 1492 1492 1492 1492 1492 1493 1493 1493 1493 1493 1494 1494 1494 1494 1494 1495 1495 1496 1496 1496 1497 1497 1498 1498 1499 1500 1501 1501 1502 1503 1504 1506 1506 1508 1509 1511 1511 1512 1513 1515 1516 1517 1518 1519 1519 1519 1520 1521 1522 1523 1525 1526 1526 1527 1528
1503 1502 1501 1500 1499 1498 1497 1497 1496 1495 1495 1494 1494 1494 1493 1493 1493 1493 1493 1492 1492 1492 1492 1491 1491 1491 1491 1491 1491 1491 1491 1491 1490 1490 1489 1489 1489 1488 1488 1488 1488 1488 1489 1489 1489 1489 1489 1490 1490 1490 1490 1490 1491 1491 1491 1491 1491 1491 1491 1492 1492 1492 1492 1493 1493 1494 1495 1495 1495 1496 1496 1496 1497 1498 1498 1499 1500 1501 1502 1503 1504 1506 1507 1508 1510 1511 1512 1513 1514 1515 1516 1516 1517 1518 1519 1520 1521 1522 1523 1524 1525 1526 1527
1501 1500 1499 1498 1497 1496 1496 1495 1494 1493 1493 1492 1492 1491 1491 1491 1491 1490 1490 1490 1490 1490 1490 1490 1489 1488 1488 1488 1488 1488 1488 1488 1488 1488 1487 1487 1487 1486 1486 1486 1486 1486 1486 1486 1486 1487 1487 1487 1488 1488 1488 1488 1488 1488 1488 1489 1489 1489 1490 1490 1490 1490 1491 1491 1491 1492 1492 1493 1493 1494 1494 1495 1495 1496 1496 1497 1498 1499 1500 1501 1502 1503 1505 1506 1507 1509 1510 1511 1512 1512 1513 1514 1515 1516 1517 1518 1519 1520 1521 1522 1523 1525 1526
1499 1498 1497 1496 1495 1494 1494 1493 1492 1491 1491 1490 1490 1490 1489 1489 1489 1488 1488 1487 1487 1487 1487 1488 1487 1486 1486 1486 1486 1486 1486 1486 1486 1486 1486 1485 1485 1485 1485 1484 1484 1484 1484 1484 1484 1484 1485 1485 1485 1486 1486 1486 1486 1486 1486 1487 1487 1487 1487 1488 1488 1488 1489 1489 1490 1490 1491 1491 1492 1492 1492 1493 1493 1494 1494 1495 1496 1496 1497 1498 1500 1501 1502 1504 1505 1506 1508 1509 1510 1511 1511 1512 1513 1515 1516 1516 1517 1519 1519 1521 1522 1523 1524
1498 1497 1496 1495 1493 1492 1492 1491 1490 1489 1489 1488 1488 1487 1487 1487 1486 1486 1486 1485 1485 1485 1485 1485 1485 1485 1484 1484 1484 1484 1484 1484 1484 1484 1483 1483 1483 1483 1483 1482 1482 1482 1482 1482 1482 1482 1482 1483 1483 1483 1484 1484 1484 1484 1484 1485 1485 1485 1486 1486 1486 1486 1487 1487 1488 1488 1489 1489 1490 1491 1491 1491 1491 1492 1492 1493 1493 1494 1495 1496 1497 1499 1500 1501 1503 1505 1506 1507 1508 1509 1510 1511 1512 1513 1514 1515 1516 1517 1518 1519 1520 1521 1523
1496 1496 1495 1493 1492 1491 1490 1489 1488 1487 1487 1486 1486 1485 1485 1485 1484 1484 1483 1483 1482 1482 1482 1482 1483 1482 1482 1482 1482 1482 1482 1482 1482 1482 1482 1481 1481 1481 1481 1481 1480 1480 1480 1480 1480 1480 1480 1480 1481 1481 1481 1481 1481 1481 1482 1482 1483 1483 1484 1484 1484 1484 1485 1485 1486 1486 1487 1487 1488 1488 1489 1490 1490 1490 1491 1491 1491 1492 1493 1494 1495 1496 1498 1499 1501 1502 1504 1506 1507 1508 1509 1510 1511 1512 1512 1513 1514 1515 1516 1517 1518 1520 1521
1495 1494 1493 1492 1491 1490 1489 1487 1486 1486 1485 1484 1484 1483 1483 1482 1482 1482 1481 1481 1481 1480 1480 1480 1480 1480 1480 1480 1480 1480 1480 1480 1480 1480 1480 1480 1479 1479 1479 1479 1479 1478 1478 1478 1478 1478 1478 1478 1478 1479 1479 1479 1479 1479 1480 1480 1481 1481 1482 1482 1482 1482 1483 1483 1484 1484 1485 1486 1486 1486 1487 1488 1488 1489 1489 1489 1490 1490 1491 1492 1493 1494 1496 1497 1498 1500 1502 1503 1505 1506 1507 1508 1509 1510 1511 1512 1513 1514 1515 1516 1516 1518 1520
1493 1492 1491 1490 1489 1488 1487 1486 1485 1484 1483 1482 1482 1481 1481 1481 1480 1479 1479 1478 1478 1478 1477 1477 1477 1477 1477 1478 1477 1477 1477 1477 1477 1478 1478 1478 1478 1477 1477 1477 1477 1477 1476 1475 1475 1475 1475 1476 1476 1476 1476 1476 1476 1477 1477 1478 1479 1479 1480 1480 1480 1480 1481 1481 1482 1482 1483 1484 1484 1485 1485 1486 1486 1487 1487 1487 1488 1488 1489 1490 1491 1492 1493 1495 1496 1498 1499 1501 1503 1504 1505 1506 1507 1508 1509 1510 1511 1512 1513 1514 1515 1516 1518
1492 1491 1490 1489 1488 1487 1486 1485 1484 1483 1482 1481 1480 1480 1479 1479 1478 1477 1476 1476 1476 1476 1475 1475 1474 1474 1475 1475 1475 1475 1475 1475 1475 1476 1475 1475 1475 1475 1475 1474 1474 1474 1474 1473 1473 1473 1473 1473 1473 1474 1474 1474 1474 1475 1475 1476 1476 1477 1477 1477 1478 1478 1479 1479 1480 1481 1481 1481 1482 1483 1483 1484 1485 1485 1486 1486 1486 1487 1487 1488 1489 1490 1491 1492 1494 1495 1497 1499 1500 1501 1502 1504 1505 1506 1507 1508 1509 1510 1510 1511 1513 1514 1516
1491 1490 1489 1487 1486 1485 1484 1483 1482 1481 1480 1479 1479 1478 1477 1477 1476 1476 1475 1474 1474 1473 1472 1472 1472 1472 1471 1472 1473 1473 1473 1473 1473 1473 1474 1473 1472 1472 1472 1472 1471 1471 1471 1471 1471 1471 1471 1471 1471 1471 1471 1471 1472 1472 1473 1473 1474 1474 1475 1475 1476 1476 1477 1477 1478 1478 1479 1480 1480 1481 1481 1482 1483 1483 1484 1484 1485 1485 1486 1487 1488 1488 1489 1491 1492 1493 1495 1496 1498 1499 1500 1501 1502 1503 1505 1506 1508 1509 1509 1510 1511 1512 1514
1490 1489 1487 1486 1485 1484 1483 1482 1481 1480 1479 1478 1477 1476 1476 1475 1475 1474 1473 1473 1472 1471 1471 1470 1470 1470 1470 1470 1470 1470 1471 1471 1472 1472 1472 1471 1470 1469 1470 1470 1470 1469 1468 1468 1468 1468 1468 1468 1468 1469 1469 1469 1470 1470 1471 1471 1471 1472 1473 1473 1474 1474 1475 1475 1476 1476 1477 1478 1478 1479 1480 1480 1481 1481 1482 1482 1483 1484 1484 1485 1486 1487 1487 1488 1490 1491 1492 1494 1495 1496 1498 1499 1500 1501 1502 1505 1506 1508 1508 1509 1509 1510 1512
1489 1488 1486 1485 1484 1482 1481 1480 1479 1478 1477 1476 1476 1475 1474 1473 1473 1472 1472 1471 1471 1470 1469 1468 1468 1468 1468 1468 1467 1468 1469 1469 1469 1470 1470 1470 1469 1468 1469 1469 1468 1467 1466 1466 1466 1466 1466 1466 1466 1466 1466 1467 1467 1468 1468 1469 1469 1470 1471 1471 1471 1472 1472 1473 1474 1475 1475 1476 1476 1477 1477 1478 1479 1480 1480 1481 1481 1482 1483 1484 1484 1485 1486 1487 1488 1489 1490 1491 1493 1494 1496 1497 1498 1499 1500 1502 1504 1505 1506 1507 1508 1509 1510
1488 1487 1485 1484 1482 1481 1480 1479 1478 1477 1476 1474 1474 1473 1472 1472 1471 1471 1470 1470 1469 1468 1467 1466 1466 1466 1467 1466 1466 1465 1466 1466 1467 1468 1468 1467 1467 1468 1468 1467 1466 1465 1464 1464 1464 1463 1463 1463 1463 1463 1464 1465 1465 1466 1466 1466 1467 1467 1468 1468 1469 1469 1470 1471 1472 1472 1473 1474 1474 1475 1476 1476 1476 1477 1478 1479 1479 1480 1481 1482 1483 1484 1484 1485 1486 1487 1488 1489 1490 1492 1493 1495 1496 1498 1499 1500 1501 1502 1504 1505 1506 1507 1509
1487 1486 1484 1483 1481 1480 1479 1478 1477 1476 1474 1472 1471 1471 1470 1470 1469 1469 1468 1468 1467 1467 1466 1465 1465 1464 1464 1465 1464 1464 1464 1465 1465 1466 1466 1466 1466 1466 1466 1466 1466 1464 1463 1463 1462 1461 1461 1461 1461 1461 1461 1462 1463 1463 1464 1464 1464 1465 1465 1466 1466 1467 1468 1469 1470 1470 1471 1471 1472 1473 1474 1474 1475 1475 1476 1477 1478 1479 1479 1480 1481 1482 1483 1484 1484 1485 1486 1487 1488 1490 1491 1493 1494 1496 1497 1498 1499 1500 1502 1503 1505 1506 1507
1486 1485 1484 1482 1481 1479 1478 1476 1475 1474 1473 1471 1470 1469 1468 1468 1467 1467 1466 1466 1466 1465 1465 1464 1464 1463 1462 1462 1462 1462 1462 1463 1464 1464 1465 1464 1464 1464 1464 1465 1464 1463 1462 1463 1461 1459 1459 1459 1458 1459 1459 1460 1461 1461 1461 1462 1462 1462 1463 1463 1464 1465 1465 1466 1467 1468 1468 1469 1470 1471 1471 1472 1473 1473 1474 1475 1476 1477 1477 1478 1479 1480 1481 1482 1483 1483 1484 1485 1486 1487 1489 1491 1492 1493 1495 1496 1497 1498 1500 1501 1503 1504 1505
1485 1484 1483 1481 1480 1478 1477 1476 1474 1473 1472 1471 1469 1468 1467 1466 1466 1465 1465 1465 1464 1464 1463 1463 1462 1461 1461 1460 1460 1460 1460 1461 1461 1462 1462 1462 1463 1463 1462 1463 1462 1461 1461 1461 1461 1459 1457 1457 1457 1457 1457 1458 1459 1459 1459 1459 1460 1460 1461 1461 1461 1462 1463 1464 1464 1465 1466 1466 1467 1468 1469 1470 1471 1471 1472 1472 1473 1475 1475 1476 1477 1478 1479 1480 1481 1482 1482 1483 1484 1486 1487 1488 1490 1491 1492 1493 1495 1496 1497 1498 1500 1501 1502
1484 1483 1482 1481 1479 1478 1476 1475 1473 1472 1471 1469 1468 1467 1466 1465 1464 1464 1463 1463 1462 1462 1462 1461 1460 1460 1459 1458 1457 1457 1458 1458 1459 1459 1460 1460 1461 1461 1461 1461 1461 1461 1460 1459 1459 1458 1456 1456 1456 1456 1455 1456 1457 1457 1457 1457 1458 1458 1458 1459 1460 1460 1461 1461 1461 1462 1463 1464 1465 1466 1466 1467 1468 1469 1470 1471 1471 1472 1473 1474 1475 1476 1477 1478 1479 1480 1481 1481 1482 1484 1485 1486 1487 1488 1490 1491 1493 1494 1495 1496 1497 1498 1500
1483 1482 1481 1480 1478 1477 1475 1474 1472 1471 1469 1468 1467 1466 1464 1463 1462 1462 1461 1461 1461 1461 1460 1459 1458 1457 1457 1457 1456 1455 1455 1455 1456 1457 1458 1458 1458 1458 1458 1459 1460 1459 1458 1456 1456 1455 1455 1455 1455 1454 1453 1454 1455 1455 1455 1456 1456 1456 1456 1457 1457 1458 1458 1459 1459 1460 1460 1461 1462 1463 1464 1465 1466 1467 1468 1468 1469 1470 1471 1472 1473 1474 1475 1476 1476 1477 1478 1479 1480 1481 1482 1484 1485 1486 1487 1489 1491 1492 1493 1494 1495 1496 1498
1483 1481 1480 1479 1477 1476 1474 1473 1471 1470 1468 1467 1466 1464 1463 1462 1461 1460 1460 1459 1459 1458 1458 1457 1456 1456 1456 1455 1455 1453 1453 1452 1453 1454 1456 1456 1456 1455 1455 1456 1456 1456 1456 1454 1453 1453 1453 1453 1453 1453 1452 1452 1453 1453 1453 1454 1454 1454 1455 1455 1455 1456 1456 1457 1457 1457 1458 1459 1460 1460 1461 1462 1463 1464 1465 1466 1467 1468 1469 1470 1471 1471 1472 1473 1474 1475 1476 1477 1478 1479 1480 1481 1482 1484 1485 1487 1488 1490 1491 1492 1493 1494 1496
1482 1481 1479 1478 1476 1475 1474 1472 1470 1469 1467 1466 1465 1463 1462 1461 1460 1459 1458 1458 1457 1456 1456 1456 1455 1454 1453 1453 1453 1452 1451 1451 1451 1452 1452 1452 1452 1452 1452 1452 1452 1452 1453 1452 1452 1452 1452 1452 1452 1452 1451 1451 1451 1451 1452 1452 1452 1452 1453 1453 1453 1454 1454 1455 1455 1456 1456 1456 1457 1458 1459 1460 1460 1461 1462 1463 1465 1466 1466 1467 1468 1469 1470 1471 1471 1472 1473 1475 1476 1476 1477 1479 1480 1481 1483 1484 1486 1487 1489 1490 1491 1492 1493
1481 1480 1478 1477 1476 1474 1472 1471 1470 1468 1466 1465 1463 1462 1461 1460 1459 1458 1457 1456 1455 1454 1454 1454 1453 1452 1451 1451 1451 1451 1450 1449 1449 1450 1450 1449 1449 1449 1449 1449 1449 1450 1449 1449 1450 1451 1451 1451 1451 1451 1451 1451 1449 1449 1450 1450 1450 1450 1451 1451 1451 1452 1452 1453 1453 1454 1454 1455 1455 1456 1457 1457 1458 1459 1460 1461 1461 1463 1464 1465 1466 1466 1467 1468 1469 1470 1471 1472 1473 1474 1475 1476 1477 1479 1481 1482 1484 1485 1486 1487 1489 1490 1491
1481 1479 1477 1476 1475 1473 1471 1470 1468 1467 1466 1464 1462 1461 1460 1459 1457 1456 1455 1454 1453 1452 1452 1451 1451 1450 1450 1449 1449 1449 1448 1447 1446 1447 1448 1447 1446 1446 1447 1447 1447 1446 1446 1446 1447 1447 1448 1449 1449 1450 1451 1449 1448 1448 1448 1447 1448 1449 1449 1449 1450 1450 1451 1451 1452 1452 1453 1453 1454 1455 1455 1455 1456 1457 1457 1458 1459 1460 1461 1462 1463 1464 1464 1465 1466 1467 1468 1469 1470 1471 1472 1473 1475 1476 1478 1480 1481 1482 1484 1485 1486 1487 1489
1480 1478 1477 1475 1473 1472 1471 1469 1467 1466 1464 1463 1461 1460 1459 1458 1456 1455 1454 1452 1451 1450 1450 1449 1449 1448 1448 1447 1447 1446 1446 1445 1444 1445 1445 1446 1445 1444 1445 1445 1445 1444 1444 1444 1444 1444 1445 1445 1446 1447 1448 1447 1447 1447 1446 1445 1446 1446 1446 1447 1448 1449 1449 1450 1450 1451 1451 1451 1452 1453 1453 1454 1454 1455 1455 1456 1457 1457 1458 1459 1460 1461 1462 1463 1464 1464 1465 1466 1467 1469 1470 1471 1472 1474 1475 1477 1478 1480 1481 1482 1483 1485 1486